Time,TemperatureF,DewpointF,PressureIn,WindDirection,WindDirectionDegrees,WindSpeedMPH,WindSpeedGustMPH,Humidity,HourlyPrecipIn,Conditions,Clouds,dailyrainin,SoftwareType,DateUTC
2013-06-23 00:02:00,58.5,22.8,29.88,ESE,109,0.0,0.0,25,0.00,,,0.00,VWS V14.01,2013-06-23 07:02:00,
2013-06-23 00:07:00,58.3,23.6,29.88,ESE,109,0.0,0.0,26,0.00,,,0.00,VWS V14.01,2013-06-23 07:07:00,
2013-06-23 00:12:00,58.1,22.5,29.88,ESE,109,0.0,0.0,25,0.00,,,0.00,VWS V14.01,2013-06-23 07:12:00,
2013-06-23 00:17:00,58.1,22.5,29.88,ESE,109,0.0,0.0,25,0.00,,,0.00,VWS V14.01,2013-06-23 07:17:00,
2013-06-23 00:22:00,57.9,22.3,29.88,ESE,109,0.0,0.0,25,0.00,,,0.00,VWS V14.01,2013-06-23 07:22:00,
2013-06-23 00:27:00,57.7,23.1,29.88,ESE,109,0.0,0.0,26,0.00,,,0.00,VWS V14.01,2013-06-23 07:27:00,
2013-06-23 00:32:00,57.6,22.0,29.88,ESE,109,0.0,0.0,25,0.00,,,0.00,VWS V14.01,2013-06-23 07:32:00,
2013-06-23 00:37:00,57.4,21.9,29.88,ESE,109,0.0,0.0,25,0.00,,,0.00,VWS V14.01,2013-06-23 07:37:00,
2013-06-23 00:42:00,57.4,21.9,29.88,ESE,109,0.0,0.0,25,0.00,,,0.00,VWS V14.01,2013-06-23 07:42:00,
2013-06-23 00:47:00,57.0,22.5,29.88,ESE,109,0.0,0.0,26,0.00,,,0.00,VWS V14.01,2013-06-23 07:47:00,
2013-06-23 00:52:00,56.8,22.3,29.88,ESE,109,0.0,0.0,26,0.00,,,0.00,VWS V14.01,2013-06-23 07:52:00,
2013-06-23 00:57:00,56.7,22.2,29.88,ESE,109,0.0,0.0,26,0.00,,,0.00,VWS V14.01,2013-06-23 07:57:00,
2013-06-23 01:02:00,56.1,21.7,29.88,ESE,109,0.0,0.0,26,0.00,,,0.00,VWS V14.01,2013-06-23 08:02:00,
2013-06-23 01:07:00,55.9,21.6,29.88,ESE,109,0.0,0.0,26,0.00,,,0.00,VWS V14.01,2013-06-23 08:07:00,
2013-06-23 01:12:00,55.9,21.6,29.88,ESE,109,0.0,0.0,26,0.00,,,0.00,VWS V14.01,2013-06-23 08:12:00,
2013-06-23 01:17:00,56.1,21.7,29.88,ESE,109,0.0,0.0,26,0.00,,,0.00,VWS V14.01,2013-06-23 08:17:00,
2013-06-23 01:22:00,55.9,21.6,29.88,ESE,109,0.0,0.0,26,0.00,,,0.00,VWS V14.01,2013-06-23 08:22:00,
2013-06-23 01:27:00,55.8,21.4,29.88,ESE,109,0.0,0.0,26,0.00,,,0.00,VWS V14.01,2013-06-23 08:27:00,
2013-06-23 01:32:00,55.4,21.1,29.88,ESE,109,0.0,0.0,26,0.00,,,0.00,VWS V14.01,2013-06-23 08:32:00,
2013-06-23 01:37:00,55.2,21.0,29.88,ESE,109,0.0,0.0,26,0.00,,,0.00,VWS V14.01,2013-06-23 08:37:00,
2013-06-23 01:42:00,55.2,21.0,29.88,ESE,109,0.0,0.0,26,0.00,,,0.00,VWS V14.01,2013-06-23 08:42:00,
2013-06-23 01:47:00,55.2,21.0,29.88,ESE,109,0.0,0.0,26,0.00,,,0.00,VWS V14.01,2013-06-23 08:47:00,
2013-06-23 01:52:00,54.9,20.6,29.88,ESE,109,0.0,0.0,26,0.00,,,0.00,VWS V14.01,2013-06-23 08:52:00,
2013-06-23 01:57:00,54.9,20.6,29.88,ESE,109,0.0,0.0,26,0.00,,,0.00,VWS V14.01,2013-06-23 08:57:00,
2013-06-23 02:02:00,54.7,20.5,29.88,ESE,109,0.0,0.0,26,0.00,,,0.00,VWS V14.01,2013-06-23 09:02:00,
2013-06-23 02:07:00,54.7,20.5,29.88,ESE,109,0.0,0.0,26,0.00,,,0.00,VWS V14.01,2013-06-23 09:07:00,
2013-06-23 02:12:00,54.5,20.3,29.88,ESE,109,0.0,0.0,26,0.00,,,0.00,VWS V14.01,2013-06-23 09:12:00,
2013-06-23 02:17:00,54.5,20.3,29.88,ESE,109,0.0,0.0,26,0.00,,,0.00,VWS V14.01,2013-06-23 09:17:00,
2013-06-23 02:22:00,54.5,20.3,29.88,ESE,109,0.0,0.0,26,0.00,,,0.00,VWS V14.01,2013-06-23 09:22:00,
2013-06-23 02:27:00,54.3,20.2,29.88,ESE,109,0.0,0.0,26,0.00,,,0.00,VWS V14.01,2013-06-23 09:27:00,
2013-06-23 02:32:00,54.1,20.0,29.88,ESE,109,0.0,0.0,26,0.00,,,0.00,VWS V14.01,2013-06-23 09:32:00,
2013-06-23 02:37:00,54.0,19.9,29.88,ESE,109,0.0,0.0,26,0.00,,,0.00,VWS V14.01,2013-06-23 09:37:00,
2013-06-23 02:42:00,53.8,19.7,29.88,ESE,109,0.0,0.0,26,0.00,,,0.00,VWS V14.01,2013-06-23 09:42:00,
2013-06-23 02:47:00,53.8,19.7,29.88,ESE,109,0.0,0.0,26,0.00,,,0.00,VWS V14.01,2013-06-23 09:47:00,
2013-06-23 02:52:00,53.8,19.7,29.88,ESE,109,0.0,0.0,26,0.00,,,0.00,VWS V14.01,2013-06-23 09:52:00,
2013-06-23 02:57:00,53.8,19.7,29.88,ESE,109,0.0,0.0,26,0.00,,,0.00,VWS V14.01,2013-06-23 09:57:00,
2013-06-23 03:02:00,53.8,19.7,29.88,ESE,109,0.0,0.0,26,0.00,,,0.00,VWS V14.01,2013-06-23 10:02:00,
2013-06-23 03:08:00,53.4,20.3,29.88,ESE,109,0.0,0.0,27,0.00,,,0.00,VWS V14.01,2013-06-23 10:08:00,
2013-06-23 03:13:00,53.2,20.1,29.88,ESE,109,0.0,0.0,27,0.00,,,0.00,VWS V14.01,2013-06-23 10:13:00,
2013-06-23 03:18:00,53.2,20.1,29.88,ESE,109,0.0,0.0,27,0.00,,,0.00,VWS V14.01,2013-06-23 10:18:00,
2013-06-23 03:23:00,52.9,19.8,29.88,ESE,109,0.0,0.0,27,0.00,,,0.00,VWS V14.01,2013-06-23 10:23:00,
2013-06-23 03:28:00,52.9,19.8,29.88,ESE,109,0.0,0.0,27,0.00,,,0.00,VWS V14.01,2013-06-23 10:28:00,
2013-06-23 03:33:00,52.5,19.5,29.88,ESE,109,0.0,0.0,27,0.00,,,0.00,VWS V14.01,2013-06-23 10:33:00,
2013-06-23 03:38:00,52.5,19.5,29.85,ESE,109,0.0,0.0,27,0.00,,,0.00,VWS V14.01,2013-06-23 10:38:00,
2013-06-23 03:43:00,52.5,19.5,29.85,ESE,109,0.0,0.0,27,0.00,,,0.00,VWS V14.01,2013-06-23 10:43:00,
2013-06-23 03:48:00,52.5,19.5,29.85,ESE,109,0.0,0.0,27,0.00,,,0.00,VWS V14.01,2013-06-23 10:48:00,
2013-06-23 03:53:00,52.5,19.5,29.85,ESE,109,0.0,0.0,27,0.00,,,0.00,VWS V14.01,2013-06-23 10:53:00,
2013-06-23 03:58:00,52.3,19.4,29.85,ESE,109,0.0,0.0,27,0.00,,,0.00,VWS V14.01,2013-06-23 10:58:00,
2013-06-23 04:03:00,52.3,19.4,29.85,ESE,109,0.0,0.0,27,0.00,,,0.00,VWS V14.01,2013-06-23 11:03:00,
2013-06-23 04:08:00,52.3,19.4,29.85,ESE,109,0.0,0.0,27,0.00,,,0.00,VWS V14.01,2013-06-23 11:08:00,
2013-06-23 04:13:00,52.5,19.5,29.85,ESE,109,0.0,0.0,27,0.00,,,0.00,VWS V14.01,2013-06-23 11:13:00,
2013-06-23 04:18:00,52.5,19.5,29.85,ESE,109,0.0,0.0,27,0.00,,,0.00,VWS V14.01,2013-06-23 11:18:00,
2013-06-23 04:23:00,52.3,19.4,29.85,ESE,109,0.0,0.0,27,0.00,,,0.00,VWS V14.01,2013-06-23 11:23:00,
2013-06-23 04:28:00,52.3,19.4,29.85,ESE,109,0.0,0.0,27,0.00,,,0.00,VWS V14.01,2013-06-23 11:28:00,
2013-06-23 04:33:00,52.3,19.4,29.85,ESE,109,0.0,0.0,27,0.00,,,0.00,VWS V14.01,2013-06-23 11:33:00,
2013-06-23 04:38:00,52.3,19.4,29.85,ESE,109,0.0,0.0,27,0.00,,,0.00,VWS V14.01,2013-06-23 11:38:00,
2013-06-23 04:43:00,52.3,19.4,29.85,ESE,109,0.0,0.0,27,0.00,,,0.00,VWS V14.01,2013-06-23 11:43:00,
2013-06-23 04:48:00,52.3,19.4,29.85,ESE,109,0.0,0.0,27,0.00,,,0.00,VWS V14.01,2013-06-23 11:48:00,
2013-06-23 04:53:00,52.3,19.4,29.85,ESE,109,0.0,0.0,27,0.00,,,0.00,VWS V14.01,2013-06-23 11:53:00,
2013-06-23 04:58:00,52.3,19.4,29.85,ESE,109,0.0,0.0,27,0.00,,,0.00,VWS V14.01,2013-06-23 11:58:00,
2013-06-23 05:03:00,52.3,19.4,29.85,ESE,109,0.0,0.0,27,0.00,,,0.00,VWS V14.01,2013-06-23 12:03:00,
2013-06-23 05:08:00,52.3,19.4,29.85,ESE,109,0.0,0.0,27,0.00,,,0.00,VWS V14.01,2013-06-23 12:08:00,
2013-06-23 05:13:00,52.3,19.4,29.85,ESE,109,0.0,0.0,27,0.00,,,0.00,VWS V14.01,2013-06-23 12:13:00,
2013-06-23 05:18:00,52.5,19.5,29.85,ESE,109,0.0,0.0,27,0.00,,,0.00,VWS V14.01,2013-06-23 12:18:00,
2013-06-23 05:23:00,52.5,19.5,29.85,ESE,109,0.0,0.0,27,0.00,,,0.00,VWS V14.01,2013-06-23 12:23:00,
2013-06-23 05:28:00,52.7,19.7,29.85,ESE,109,0.0,0.0,27,0.00,,,0.00,VWS V14.01,2013-06-23 12:28:00,
2013-06-23 05:33:00,52.5,19.5,29.85,ESE,109,0.0,0.0,27,0.00,,,0.00,VWS V14.01,2013-06-23 12:33:00,
2013-06-23 05:38:00,52.5,19.5,29.85,ESE,109,0.0,0.0,27,0.00,,,0.00,VWS V14.01,2013-06-23 12:38:00,
2013-06-23 05:43:00,52.3,19.4,29.85,ESE,109,0.0,0.0,27,0.00,,,0.00,VWS V14.01,2013-06-23 12:43:00,
2013-06-23 05:48:00,52.3,19.4,29.85,ESE,109,0.0,0.0,27,0.00,,,0.00,VWS V14.01,2013-06-23 12:48:00,
2013-06-23 05:53:00,52.5,19.5,29.85,ESE,109,0.0,0.0,27,0.00,,,0.00,VWS V14.01,2013-06-23 12:53:00,
2013-06-23 05:58:00,52.5,19.5,29.85,ESE,109,0.0,0.0,27,0.00,,,0.00,VWS V14.01,2013-06-23 12:58:00,
2013-06-23 06:03:00,52.5,19.5,29.85,ESE,109,0.0,0.0,27,0.00,,,0.00,VWS V14.01,2013-06-23 13:03:00,
2013-06-23 06:08:00,52.5,19.5,29.85,ESE,109,0.0,0.0,27,0.00,,,0.00,VWS V14.01,2013-06-23 13:08:00,
2013-06-23 06:13:00,52.5,19.5,29.85,ESE,109,0.0,0.0,27,0.00,,,0.00,VWS V14.01,2013-06-23 13:13:00,
2013-06-23 06:18:00,52.5,19.5,29.85,ESE,109,0.0,0.0,27,0.00,,,0.00,VWS V14.01,2013-06-23 13:18:00,
2013-06-23 06:23:00,52.7,19.7,29.85,ESE,109,0.0,0.0,27,0.00,,,0.00,VWS V14.01,2013-06-23 13:23:00,
2013-06-23 06:28:00,52.7,19.7,29.85,ESE,109,0.0,0.0,27,0.00,,,0.00,VWS V14.01,2013-06-23 13:28:00,
2013-06-23 06:33:00,52.5,19.5,29.85,ESE,109,0.0,0.0,27,0.00,,,0.00,VWS V14.01,2013-06-23 13:33:00,
2013-06-23 06:38:00,52.5,19.5,29.85,ESE,109,0.0,0.0,27,0.00,,,0.00,VWS V14.01,2013-06-23 13:38:00,
2013-06-23 06:43:00,52.7,19.7,29.85,ESE,109,0.0,0.0,27,0.00,,,0.00,VWS V14.01,2013-06-23 13:43:00,
2013-06-23 06:48:00,52.9,19.8,29.85,ESE,109,0.0,0.0,27,0.00,,,0.00,VWS V14.01,2013-06-23 13:48:00,
2013-06-23 06:53:00,52.9,19.8,29.82,ESE,109,0.0,0.0,27,0.00,,,0.00,VWS V14.01,2013-06-23 13:53:00,
2013-06-23 06:58:00,52.9,19.8,29.82,SSW,213,0.0,0.0,27,0.00,,,0.00,VWS V14.01,2013-06-23 13:58:00,
2013-06-23 07:03:00,52.9,19.8,29.82,SSW,213,0.0,0.0,27,0.00,,,0.00,VWS V14.01,2013-06-23 14:03:00,
2013-06-23 07:08:00,53.1,20.0,29.82,SSW,213,0.0,0.0,27,0.00,,,0.00,VWS V14.01,2013-06-23 14:08:00,
2013-06-23 07:13:00,53.1,20.0,29.82,SSW,213,0.0,0.0,27,0.00,,,0.00,VWS V14.01,2013-06-23 14:13:00,
2013-06-23 07:18:00,53.4,20.3,29.82,SSW,213,0.0,0.0,27,0.00,,,0.00,VWS V14.01,2013-06-23 14:18:00,
2013-06-23 07:23:00,53.8,19.7,29.82,SSW,213,0.0,0.0,26,0.00,,,0.00,VWS V14.01,2013-06-23 14:23:00,
2013-06-23 07:28:00,53.8,19.7,29.82,SSW,213,0.0,0.0,26,0.00,,,0.00,VWS V14.01,2013-06-23 14:28:00,
2013-06-23 07:33:00,53.6,19.6,29.82,SSW,213,0.0,0.0,26,0.00,,,0.00,VWS V14.01,2013-06-23 14:33:00,
2013-06-23 07:38:00,53.6,19.6,29.82,SSW,213,0.0,0.0,26,0.00,,,0.00,VWS V14.01,2013-06-23 14:38:00,
2013-06-23 07:43:00,53.6,19.6,29.82,SSW,213,0.0,0.0,26,0.00,,,0.00,VWS V14.01,2013-06-23 14:43:00,
2013-06-23 07:48:00,53.6,19.6,29.82,SSW,213,0.0,0.0,26,0.00,,,0.00,VWS V14.01,2013-06-23 14:48:00,
2013-06-23 07:53:00,54.0,19.9,29.82,SSW,213,0.0,0.0,26,0.00,,,0.00,VWS V14.01,2013-06-23 14:53:00,
2013-06-23 07:58:00,54.1,20.0,29.82,SSW,213,0.0,0.0,26,0.00,,,0.00,VWS V14.01,2013-06-23 14:58:00,
2013-06-23 08:04:00,54.5,20.3,29.82,SSW,213,0.0,0.0,26,0.00,,,0.00,VWS V14.01,2013-06-23 15:04:00,
2013-06-23 08:09:00,54.5,20.3,29.82,SSW,213,0.0,0.0,26,0.00,,,0.00,VWS V14.01,2013-06-23 15:09:00,
2013-06-23 08:14:00,54.7,20.5,29.82,SSW,213,0.0,0.0,26,0.00,,,0.00,VWS V14.01,2013-06-23 15:14:00,
2013-06-23 08:19:00,54.7,20.5,29.82,SSW,213,0.0,0.0,26,0.00,,,0.00,VWS V14.01,2013-06-23 15:19:00,
2013-06-23 08:24:00,54.9,20.6,29.82,SSW,213,0.0,0.0,26,0.00,,,0.00,VWS V14.01,2013-06-23 15:24:00,
2013-06-23 08:29:00,54.5,20.3,29.82,SSW,213,0.0,0.0,26,0.00,,,0.00,VWS V14.01,2013-06-23 15:29:00,
2013-06-23 08:34:00,54.5,20.3,29.82,SSW,213,0.0,0.0,26,0.00,,,0.00,VWS V14.01,2013-06-23 15:34:00,
2013-06-23 08:39:00,54.7,20.5,29.82,SSW,213,0.0,0.0,26,0.00,,,0.00,VWS V14.01,2013-06-23 15:39:00,
2013-06-23 08:44:00,54.9,20.6,29.82,SSW,213,0.0,0.0,26,0.00,,,0.00,VWS V14.01,2013-06-23 15:44:00,
2013-06-23 08:49:00,54.9,20.6,29.82,SSW,213,0.0,0.0,26,0.00,,,0.00,VWS V14.01,2013-06-23 15:49:00,
2013-06-23 08:54:00,55.4,21.1,29.82,SSW,213,0.0,0.0,26,0.00,,,0.00,VWS V14.01,2013-06-23 15:54:00,
2013-06-23 09:00:00,55.4,21.1,29.82,SSW,213,0.0,0.0,26,0.00,,,0.00,VWS V14.01,2013-06-23 16:00:00,
2013-06-23 09:06:00,55.9,21.6,29.82,SSW,213,0.0,0.0,26,0.00,,,0.00,VWS V14.01,2013-06-23 16:06:00,
2013-06-23 09:11:00,56.1,21.7,29.82,SSW,213,0.0,0.0,26,0.00,,,0.00,VWS V14.01,2013-06-23 16:11:00,
2013-06-23 09:16:00,56.3,21.9,29.82,SSW,213,0.0,0.0,26,0.00,,,0.00,VWS V14.01,2013-06-23 16:16:00,
2013-06-23 09:21:00,56.3,21.9,29.82,SSW,213,0.0,0.0,26,0.00,,,0.00,VWS V14.01,2013-06-23 16:21:00,
2013-06-23 09:26:00,56.5,22.0,29.82,SSW,213,0.0,0.0,26,0.00,,,0.00,VWS V14.01,2013-06-23 16:26:00,
2013-06-23 09:31:00,56.5,22.0,29.82,SSW,213,0.0,0.0,26,0.00,,,0.00,VWS V14.01,2013-06-23 16:31:00,
2013-06-23 09:36:00,56.5,22.0,29.79,SSW,213,0.0,0.0,26,0.00,,,0.00,VWS V14.01,2013-06-23 16:36:00,
2013-06-23 09:41:00,56.7,22.2,29.79,SSW,213,0.0,0.0,26,0.00,,,0.00,VWS V14.01,2013-06-23 16:41:00,
2013-06-23 09:46:00,56.8,22.3,29.79,SSW,213,0.0,0.0,26,0.00,,,0.00,VWS V14.01,2013-06-23 16:46:00,
2013-06-23 09:51:00,56.8,22.3,29.79,SSW,213,0.0,0.0,26,0.00,,,0.00,VWS V14.01,2013-06-23 16:51:00,
2013-06-23 09:56:00,57.4,21.9,29.79,SW,214,0.0,0.0,25,0.00,,,0.00,VWS V14.01,2013-06-23 16:56:00,
2013-06-23 09:57:00,57.6,22.0,29.79,SSW,213,0.0,0.0,25,0.00,,,0.00,VWS V14.01,2013-06-23 16:57:00,
2013-06-23 09:58:00,57.6,22.0,29.79,SSW,213,0.0,0.0,25,0.00,,,0.00,VWS V14.01,2013-06-23 16:58:00,
2013-06-23 10:01:00,57.6,22.0,29.79,SSW,213,0.0,0.0,25,0.00,,,0.00,VWS V14.01,2013-06-23 17:01:00,
2013-06-23 10:05:00,57.6,22.0,29.79,SSW,213,0.0,0.0,25,0.00,,,0.00,VWS V14.01,2013-06-23 17:05:00,
2013-06-23 10:07:00,57.7,22.2,29.79,SSW,213,0.0,0.0,25,0.00,,,0.00,VWS V14.01,2013-06-23 17:07:00,
2013-06-23 10:12:00,57.9,22.3,29.79,SSW,213,0.0,0.0,25,0.00,,,0.00,VWS V14.01,2013-06-23 17:12:00,
2013-06-23 10:17:00,58.8,23.1,29.79,SSW,213,0.0,0.0,25,0.00,,,0.00,VWS V14.01,2013-06-23 17:17:00,
2013-06-23 10:22:00,58.8,23.1,29.79,SSW,213,0.0,0.0,25,0.00,,,0.00,VWS V14.01,2013-06-23 17:22:00,
2013-06-23 10:27:00,59.2,23.4,29.79,SSW,213,0.0,0.0,25,0.00,,,0.00,VWS V14.01,2013-06-23 17:27:00,
2013-06-23 10:32:00,59.7,23.9,29.79,West,276,0.0,0.0,25,0.00,,,0.00,VWS V14.01,2013-06-23 17:32:00,
2013-06-23 10:37:00,60.4,24.5,29.79,ENE,61,0.0,0.0,25,0.00,,,0.00,VWS V14.01,2013-06-23 17:37:00,
2013-06-23 10:42:00,61.3,25.2,29.79,ESE,106,0.0,0.0,25,0.00,,,0.00,VWS V14.01,2013-06-23 17:42:00,
2013-06-23 10:47:00,61.7,25.5,29.79,East,100,0.0,0.0,25,0.00,,,0.00,VWS V14.01,2013-06-23 17:47:00,
2013-06-23 10:52:00,61.7,25.5,29.79,ESE,107,3.1,3.1,25,0.00,,,0.00,VWS V14.01,2013-06-23 17:52:00,
2013-06-23 10:57:00,62.2,26.0,29.79,East,98,2.7,2.7,25,0.00,,,0.00,VWS V14.01,2013-06-23 17:57:00,
2013-06-23 11:02:00,62.2,26.0,29.79,ESE,108,4.9,4.9,25,0.00,,,0.00,VWS V14.01,2013-06-23 18:02:00,
2013-06-23 11:07:00,62.6,25.3,29.79,ESE,108,4.9,4.9,24,0.00,,,0.00,VWS V14.01,2013-06-23 18:07:00,
2013-06-23 11:12:00,63.5,26.1,29.79,ESE,106,3.6,3.6,24,0.00,,,0.00,VWS V14.01,2013-06-23 18:12:00,
2013-06-23 11:17:00,63.9,26.4,29.79,East,91,0.0,3.6,24,0.00,,,0.00,VWS V14.01,2013-06-23 18:17:00,
2013-06-23 11:22:00,65.1,27.5,29.76,ENE,73,0.0,3.1,24,0.00,,,0.00,VWS V14.01,2013-06-23 18:22:00,
2013-06-23 11:27:00,65.8,28.1,29.76,ENE,73,0.0,0.0,24,0.00,,,0.00,VWS V14.01,2013-06-23 18:27:00,
2013-06-23 11:32:00,66.4,27.5,29.76,ENE,71,0.0,0.0,23,0.00,,,0.00,VWS V14.01,2013-06-23 18:32:00,
2013-06-23 11:37:00,66.9,27.9,29.76,East,89,0.0,0.0,23,0.00,,,0.00,VWS V14.01,2013-06-23 18:37:00,
2013-06-23 11:42:00,67.5,28.4,29.76,East,98,4.9,4.9,23,0.00,,,0.00,VWS V14.01,2013-06-23 18:42:00,
2013-06-23 11:48:00,67.8,28.7,29.76,East,98,4.9,4.9,23,0.00,,,0.00,VWS V14.01,2013-06-23 18:48:00,
2013-06-23 11:53:00,68.4,29.1,29.76,East,94,5.8,5.8,23,0.00,,,0.00,VWS V14.01,2013-06-23 18:53:00,
2013-06-23 11:58:00,68.4,29.1,29.76,East,82,4.0,4.0,23,0.00,,,0.00,VWS V14.01,2013-06-23 18:58:00,
2013-06-23 12:03:00,68.2,29.0,29.76,East,86,0.0,0.0,23,0.00,,,0.00,VWS V14.01,2013-06-23 19:03:00,
2013-06-23 12:08:00,68.2,29.0,29.76,East,85,3.1,3.1,23,0.00,,,0.00,VWS V14.01,2013-06-23 19:08:00,
2013-06-23 12:13:00,68.4,29.1,29.76,ENE,65,2.2,4.0,23,0.00,,,0.00,VWS V14.01,2013-06-23 19:13:00,
2013-06-23 12:18:00,68.4,28.1,29.76,East,82,0.0,0.0,22,0.00,,,0.00,VWS V14.01,2013-06-23 19:18:00,
2013-06-23 12:23:00,68.4,29.1,29.76,East,89,4.0,4.0,23,0.00,,,0.00,VWS V14.01,2013-06-23 19:23:00,
2013-06-23 12:28:00,68.2,29.0,29.76,East,97,0.0,2.2,23,0.00,,,0.00,VWS V14.01,2013-06-23 19:28:00,
2013-06-23 12:33:00,68.0,28.9,29.76,NE,52,0.0,0.0,23,0.00,,,0.00,VWS V14.01,2013-06-23 19:33:00,
2013-06-23 12:38:00,67.8,28.7,29.76,East,88,0.0,0.0,23,0.00,,,0.00,VWS V14.01,2013-06-23 19:38:00,
2013-06-23 12:43:00,67.6,28.5,29.76,East,100,2.7,3.1,23,0.00,,,0.00,VWS V14.01,2013-06-23 19:43:00,
2013-06-23 12:48:00,67.6,28.5,29.76,East,93,3.6,3.6,23,0.00,,,0.00,VWS V14.01,2013-06-23 19:48:00,
2013-06-23 12:53:00,67.8,28.7,29.73,North,353,0.0,0.0,23,0.00,,,0.00,VWS V14.01,2013-06-23 19:53:00,
2013-06-23 12:58:00,68.2,29.0,29.73,North,353,0.0,0.0,23,0.00,,,0.00,VWS V14.01,2013-06-23 19:58:00,
2013-06-23 13:03:00,68.2,29.0,29.73,East,101,0.0,0.0,23,0.00,,,0.00,VWS V14.01,2013-06-23 20:03:00,
2013-06-23 13:08:00,67.5,28.4,29.73,East,96,2.7,2.7,23,0.00,,,0.00,VWS V14.01,2013-06-23 20:08:00,
2013-06-23 13:13:00,67.8,28.7,29.73,ESE,105,0.0,0.0,23,0.00,,,0.00,VWS V14.01,2013-06-23 20:13:00,
2013-06-23 13:18:00,68.0,27.8,29.73,ESE,106,0.0,0.0,22,0.00,,,0.00,VWS V14.01,2013-06-23 20:18:00,
2013-06-23 13:23:00,68.0,27.8,29.73,ESE,106,0.0,0.0,22,0.00,,,0.00,VWS V14.01,2013-06-23 20:23:00,
2013-06-23 13:28:00,68.2,27.9,29.73,East,95,3.1,3.1,22,0.00,,,0.00,VWS V14.01,2013-06-23 20:28:00,
2013-06-23 13:33:00,68.0,27.8,29.73,ESE,111,5.4,5.4,22,0.00,,,0.00,VWS V14.01,2013-06-23 20:33:00,
2013-06-23 13:38:00,68.0,27.8,29.73,ESE,105,0.0,0.0,22,0.00,,,0.00,VWS V14.01,2013-06-23 20:38:00,
2013-06-23 13:43:00,68.7,28.4,29.73,East,91,0.0,0.0,22,0.00,,,0.00,VWS V14.01,2013-06-23 20:43:00,
2013-06-23 13:48:00,68.5,28.2,29.73,East,97,4.9,4.9,22,0.00,,,0.00,VWS V14.01,2013-06-23 20:48:00,
2013-06-23 13:53:00,68.7,28.4,29.73,East,97,4.9,4.9,22,0.00,,,0.00,VWS V14.01,2013-06-23 20:53:00,
2013-06-23 13:58:00,69.3,28.8,29.73,East,87,2.2,2.2,22,0.00,,,0.00,VWS V14.01,2013-06-23 20:58:00,
2013-06-23 14:03:00,69.6,29.1,29.73,East,91,4.0,4.0,22,0.00,,,0.00,VWS V14.01,2013-06-23 21:03:00,
2013-06-23 14:08:00,69.6,29.1,29.73,East,91,4.0,4.0,22,0.00,,,0.00,VWS V14.01,2013-06-23 21:08:00,
2013-06-23 14:13:00,69.4,29.0,29.73,East,79,0.0,0.0,22,0.00,,,0.00,VWS V14.01,2013-06-23 21:13:00,
2013-06-23 14:18:00,69.4,29.0,29.73,East,79,0.0,0.0,22,0.00,,,0.00,VWS V14.01,2013-06-23 21:18:00,
2013-06-23 14:23:00,69.4,29.0,29.73,ENE,76,4.0,4.0,22,0.00,,,0.00,VWS V14.01,2013-06-23 21:23:00,
2013-06-23 14:28:00,67.5,27.3,29.73,East,88,3.1,3.1,22,0.00,,,0.00,VWS V14.01,2013-06-23 21:28:00,
2013-06-23 14:33:00,66.9,26.9,29.73,ENE,59,2.7,3.1,22,0.00,,,0.00,VWS V14.01,2013-06-23 21:33:00,
2013-06-23 14:38:00,66.6,26.6,29.73,ENE,76,3.6,3.6,22,0.00,,,0.00,VWS V14.01,2013-06-23 21:38:00,
2013-06-23 14:43:00,66.7,27.8,29.73,NE,55,0.0,2.7,23,0.00,,,0.00,VWS V14.01,2013-06-23 21:43:00,
2013-06-23 14:48:00,66.9,27.9,29.73,ENE,77,5.4,5.4,23,0.00,,,0.00,VWS V14.01,2013-06-23 21:48:00,
2013-06-23 14:53:00,67.1,28.1,29.73,ENE,72,0.0,5.8,23,0.00,,,0.00,VWS V14.01,2013-06-23 21:53:00,
2013-06-23 14:58:00,66.2,27.3,29.73,ENE,68,0.0,0.0,23,0.00,,,0.00,VWS V14.01,2013-06-23 21:58:00,
2013-06-23 15:03:00,65.7,27.9,29.73,NE,35,0.0,0.0,24,0.00,,,0.00,VWS V14.01,2013-06-23 22:03:00,
2013-06-23 15:08:00,64.9,27.3,29.73,NNE,31,0.0,0.0,24,0.00,,,0.00,VWS V14.01,2013-06-23 22:08:00,
2013-06-23 15:13:00,64.4,26.9,29.73,NE,38,0.0,0.0,24,0.00,,,0.00,VWS V14.01,2013-06-23 22:13:00,
2013-06-23 15:18:00,64.8,27.2,29.73,NNE,33,0.0,0.0,24,0.00,,,0.00,VWS V14.01,2013-06-23 22:18:00,
2013-06-23 15:23:00,65.3,27.6,29.73,North,353,0.0,0.0,24,0.00,,,0.00,VWS V14.01,2013-06-23 22:23:00,
2013-06-23 15:28:00,65.7,27.9,29.73,North,353,0.0,0.0,24,0.00,,,0.00,VWS V14.01,2013-06-23 22:28:00,
2013-06-23 15:33:00,66.0,28.2,29.73,North,353,0.0,0.0,24,0.00,,,0.00,VWS V14.01,2013-06-23 22:33:00,
2013-06-23 15:38:00,66.0,28.2,29.70,East,89,3.6,3.6,24,0.00,,,0.00,VWS V14.01,2013-06-23 22:38:00,
2013-06-23 15:43:00,64.9,27.3,29.70,East,99,5.4,5.4,24,0.00,,,0.00,VWS V14.01,2013-06-23 22:43:00,
2013-06-23 15:48:00,64.8,27.2,29.70,East,95,2.7,4.0,24,0.00,,,0.00,VWS V14.01,2013-06-23 22:48:00,
2013-06-23 15:53:00,64.8,27.2,29.70,East,79,3.1,3.1,24,0.00,,,0.00,VWS V14.01,2013-06-23 22:53:00,
2013-06-23 15:58:00,64.8,27.2,29.70,East,96,0.0,0.0,24,0.00,,,0.00,VWS V14.01,2013-06-23 22:58:00,
2013-06-23 16:03:00,64.9,27.3,29.70,East,79,0.0,0.0,24,0.00,,,0.00,VWS V14.01,2013-06-23 23:03:00,
2013-06-23 16:08:00,65.1,27.5,29.70,ENE,68,0.0,0.0,24,0.00,,,0.00,VWS V14.01,2013-06-23 23:08:00,
2013-06-23 16:13:00,64.9,27.3,29.70,East,88,0.0,0.0,24,0.00,,,0.00,VWS V14.01,2013-06-23 23:13:00,
2013-06-23 16:18:00,64.8,27.2,29.70,East,86,2.7,2.7,24,0.00,,,0.00,VWS V14.01,2013-06-23 23:18:00,
2013-06-23 16:23:00,64.9,27.3,29.70,ENE,67,3.6,3.6,24,0.00,,,0.00,VWS V14.01,2013-06-23 23:23:00,
2013-06-23 16:28:00,64.8,27.2,29.70,ENE,65,2.7,2.7,24,0.00,,,0.00,VWS V14.01,2013-06-23 23:28:00,
2013-06-23 16:33:00,64.8,27.2,29.70,ENE,71,2.7,2.7,24,0.00,,,0.00,VWS V14.01,2013-06-23 23:33:00,
2013-06-23 16:38:00,64.8,27.2,29.70,ENE,71,2.7,2.7,24,0.00,,,0.00,VWS V14.01,2013-06-23 23:38:00,
2013-06-23 16:43:00,64.8,27.2,29.70,ENE,75,0.0,0.0,24,0.00,,,0.00,VWS V14.01,2013-06-23 23:43:00,
2013-06-23 16:48:00,64.8,27.2,29.70,ENE,67,0.0,0.0,24,0.00,,,0.00,VWS V14.01,2013-06-23 23:48:00,
2013-06-23 16:53:00,64.8,27.2,29.70,ENE,68,0.0,0.0,24,0.00,,,0.00,VWS V14.01,2013-06-23 23:53:00,
2013-06-23 16:58:00,64.9,27.3,29.70,ENE,68,0.0,0.0,24,0.00,,,0.00,VWS V14.01,2013-06-23 23:58:00,
2013-06-23 17:03:00,65.1,27.5,29.70,ENE,73,3.1,3.1,24,0.00,,,0.00,VWS V14.01,2013-06-24 00:03:00,
2013-06-23 17:08:00,65.3,27.6,29.67,East,79,0.0,0.0,24,0.00,,,0.00,VWS V14.01,2013-06-24 00:08:00,
2013-06-23 17:13:00,65.7,27.9,29.67,East,79,0.0,0.0,24,0.00,,,0.00,VWS V14.01,2013-06-24 00:13:00,
2013-06-23 17:18:00,66.0,28.2,29.67,East,95,0.0,0.0,24,0.00,,,0.00,VWS V14.01,2013-06-24 00:18:00,
2013-06-23 17:23:00,66.2,27.3,29.67,East,95,0.0,0.0,23,0.00,,,0.00,VWS V14.01,2013-06-24 00:23:00,
2013-06-23 17:28:00,66.2,27.3,29.67,ENE,60,0.0,0.0,23,0.00,,,0.00,VWS V14.01,2013-06-24 00:28:00,
2013-06-23 17:33:00,66.0,28.2,29.67,East,87,0.0,0.0,24,0.00,,,0.00,VWS V14.01,2013-06-24 00:33:00,
2013-06-23 17:38:00,65.7,27.9,29.67,ESE,103,0.0,0.0,24,0.00,,,0.00,VWS V14.01,2013-06-24 00:38:00,
2013-06-23 17:43:00,65.7,27.9,29.67,ESE,103,0.0,0.0,24,0.00,,,0.00,VWS V14.01,2013-06-24 00:43:00,
2013-06-23 17:49:00,65.7,27.9,29.67,ENE,65,0.0,0.0,24,0.00,,,0.00,VWS V14.01,2013-06-24 00:49:00,
2013-06-23 17:54:00,65.5,27.8,29.67,ESE,107,0.0,0.0,24,0.00,,,0.00,VWS V14.01,2013-06-24 00:54:00,
2013-06-23 17:59:00,65.5,27.8,29.67,East,98,0.0,0.0,24,0.00,,,0.00,VWS V14.01,2013-06-24 00:59:00,
2013-06-23 18:05:00,65.5,27.8,29.67,East,95,2.2,2.2,24,0.00,,,0.00,VWS V14.01,2013-06-24 01:05:00,
2013-06-23 18:10:00,65.5,27.8,29.67,East,95,0.0,0.0,24,0.00,,,0.00,VWS V14.01,2013-06-24 01:10:00,
2013-06-23 18:15:00,65.5,27.8,29.67,East,95,0.0,0.0,24,0.00,,,0.00,VWS V14.01,2013-06-24 01:15:00,
2013-06-23 18:20:00,65.3,27.6,29.67,NE,43,0.0,0.0,24,0.00,,,0.00,VWS V14.01,2013-06-24 01:20:00,
2013-06-23 18:25:00,65.5,27.8,29.67,NE,51,0.0,0.0,24,0.00,,,0.00,VWS V14.01,2013-06-24 01:25:00,
2013-06-23 18:30:00,65.5,27.8,29.67,NE,51,0.0,0.0,24,0.00,,,0.00,VWS V14.01,2013-06-24 01:30:00,
2013-06-23 18:36:00,65.1,27.5,29.64,NE,51,0.0,0.0,24,0.00,,,0.00,VWS V14.01,2013-06-24 01:36:00,
2013-06-23 18:41:00,64.9,27.3,29.64,NE,45,0.0,0.0,24,0.00,,,0.00,VWS V14.01,2013-06-24 01:41:00,
2013-06-23 18:46:00,64.9,27.3,29.64,NE,45,0.0,0.0,24,0.00,,,0.00,VWS V14.01,2013-06-24 01:46:00,
2013-06-23 18:51:00,64.9,27.3,29.64,NE,45,0.0,0.0,24,0.00,,,0.00,VWS V14.01,2013-06-24 01:51:00,
2013-06-23 18:56:00,64.8,27.2,29.64,NE,45,0.0,0.0,24,0.00,,,0.00,VWS V14.01,2013-06-24 01:56:00,
2013-06-23 19:02:00,65.1,27.5,29.64,NE,45,0.0,0.0,24,0.00,,,0.00,VWS V14.01,2013-06-24 02:02:00,
2013-06-23 19:07:00,65.1,27.5,29.64,NE,45,0.0,0.0,24,0.00,,,0.00,VWS V14.01,2013-06-24 02:07:00,
2013-06-23 19:12:00,64.8,27.2,29.64,SSE,157,4.9,4.9,24,0.00,,,0.00,VWS V14.01,2013-06-24 02:12:00,
2013-06-23 19:17:00,64.0,26.5,29.64,SW,226,0.0,0.0,24,0.00,,,0.00,VWS V14.01,2013-06-24 02:17:00,
2013-06-23 19:23:00,63.7,26.2,29.64,SW,226,0.0,0.0,24,0.00,,,0.00,VWS V14.01,2013-06-24 02:23:00,
2013-06-23 19:28:00,63.7,26.2,29.64,SW,226,0.0,0.0,24,0.00,,,0.00,VWS V14.01,2013-06-24 02:28:00,
2013-06-23 19:33:00,63.3,25.9,29.64,SW,227,0.0,0.0,24,0.00,,,0.00,VWS V14.01,2013-06-24 02:33:00,
2013-06-23 19:38:00,62.1,25.9,29.64,SW,227,0.0,0.0,25,0.00,,,0.00,VWS V14.01,2013-06-24 02:38:00,
2013-06-23 19:44:00,61.3,25.2,29.64,SW,228,0.0,0.0,25,0.00,,,0.00,VWS V14.01,2013-06-24 02:44:00,
2013-06-23 19:49:00,61.5,25.4,29.64,SW,227,0.0,0.0,25,0.00,,,0.00,VWS V14.01,2013-06-24 02:49:00,
2013-06-23 19:54:00,62.1,25.9,29.64,SW,234,0.0,0.0,25,0.00,,,0.00,VWS V14.01,2013-06-24 02:54:00,
2013-06-23 19:59:00,62.6,25.3,29.64,SW,234,0.0,0.0,24,0.00,,,0.00,VWS V14.01,2013-06-24 02:59:00,
2013-06-23 20:04:00,62.2,26.0,29.64,SW,234,0.0,0.0,25,0.00,,,0.00,VWS V14.01,2013-06-24 03:04:00,
2013-06-23 20:09:00,62.2,26.0,29.64,SW,234,0.0,0.0,25,0.00,,,0.00,VWS V14.01,2013-06-24 03:09:00,
2013-06-23 20:14:00,62.4,26.2,29.64,SW,234,0.0,0.0,25,0.00,,,0.00,VWS V14.01,2013-06-24 03:14:00,
2013-06-23 20:19:00,62.4,26.2,29.64,SW,234,0.0,0.0,25,0.00,,,0.00,VWS V14.01,2013-06-24 03:19:00,
2013-06-23 20:24:00,62.2,26.0,29.64,SW,234,0.0,0.0,25,0.00,,,0.00,VWS V14.01,2013-06-24 03:24:00,
2013-06-23 20:30:00,62.2,26.0,29.64,SW,234,0.0,0.0,25,0.00,,,0.00,VWS V14.01,2013-06-24 03:30:00,
2013-06-23 20:36:00,62.2,26.0,29.64,SW,234,0.0,0.0,25,0.00,,,0.00,VWS V14.01,2013-06-24 03:36:00,
2013-06-23 20:41:00,62.2,26.0,29.64,SW,234,0.0,0.0,25,0.00,,,0.00,VWS V14.01,2013-06-24 03:41:00,
2013-06-23 20:46:00,62.1,25.9,29.64,SW,234,0.0,0.0,25,0.00,,,0.00,VWS V14.01,2013-06-24 03:46:00,
2013-06-23 20:51:00,61.5,25.4,29.64,SW,234,0.0,0.0,25,0.00,,,0.00,VWS V14.01,2013-06-24 03:51:00,
2013-06-23 20:56:00,61.0,24.9,29.64,SW,234,0.0,0.0,25,0.00,,,0.00,VWS V14.01,2013-06-24 03:56:00,
2013-06-23 21:01:00,60.6,24.6,29.64,SW,234,0.0,0.0,25,0.00,,,0.00,VWS V14.01,2013-06-24 04:01:00,
2013-06-23 21:02:00,60.6,24.6,29.64,SW,234,0.0,0.0,25,0.00,,,0.00,VWS V14.01,2013-06-24 04:02:00,
2013-06-23 21:03:00,60.6,24.6,29.64,SW,234,0.0,0.0,25,0.00,,,0.00,VWS V14.01,2013-06-24 04:03:00,
2013-06-23 21:05:00,60.6,24.6,29.64,SW,234,0.0,0.0,25,0.00,,,0.00,VWS V14.01,2013-06-24 04:05:00,
2013-06-23 21:08:00,60.8,24.8,29.64,SW,234,0.0,0.0,25,0.00,,,0.00,VWS V14.01,2013-06-24 04:08:00,
2013-06-23 21:13:00,60.8,24.8,29.64,SW,234,0.0,0.0,25,0.00,,,0.00,VWS V14.01,2013-06-24 04:13:00,
2013-06-23 21:18:00,60.8,24.8,29.64,SW,234,0.0,0.0,25,0.00,,,0.00,VWS V14.01,2013-06-24 04:18:00,
2013-06-23 21:23:00,60.8,24.8,29.64,SW,234,0.0,0.0,25,0.00,,,0.00,VWS V14.01,2013-06-24 04:23:00,
2013-06-23 21:28:00,60.6,24.6,29.64,SW,234,0.0,0.0,25,0.00,,,0.00,VWS V14.01,2013-06-24 04:28:00,
2013-06-23 21:33:00,60.3,24.3,29.64,SW,234,0.0,0.0,25,0.00,,,0.00,VWS V14.01,2013-06-24 04:33:00,
2013-06-23 21:38:00,60.3,24.3,29.64,SW,234,0.0,0.0,25,0.00,,,0.00,VWS V14.01,2013-06-24 04:38:00,
2013-06-23 21:43:00,60.3,24.3,29.64,SW,234,0.0,0.0,25,0.00,,,0.00,VWS V14.01,2013-06-24 04:43:00,
2013-06-23 21:48:00,59.5,23.7,29.64,SW,234,0.0,0.0,25,0.00,,,0.00,VWS V14.01,2013-06-24 04:48:00,
2013-06-23 21:53:00,59.2,23.4,29.64,SW,234,0.0,0.0,25,0.00,,,0.00,VWS V14.01,2013-06-24 04:53:00,
2013-06-23 21:58:00,58.8,24.0,29.64,SW,234,0.0,0.0,26,0.00,,,0.00,VWS V14.01,2013-06-24 04:58:00,
2013-06-23 22:03:00,58.6,23.9,29.64,SW,234,0.0,0.0,26,0.00,,,0.00,VWS V14.01,2013-06-24 05:03:00,
2013-06-23 22:08:00,58.1,23.4,29.64,SW,234,0.0,0.0,26,0.00,,,0.00,VWS V14.01,2013-06-24 05:08:00,
2013-06-23 22:14:00,58.1,23.4,29.64,SW,234,0.0,0.0,26,0.00,,,0.00,VWS V14.01,2013-06-24 05:14:00,
2013-06-23 22:20:00,58.1,23.4,29.64,SW,234,0.0,0.0,26,0.00,,,0.00,VWS V14.01,2013-06-24 05:20:00,
2013-06-23 22:25:00,58.1,23.4,29.64,SW,234,0.0,0.0,26,0.00,,,0.00,VWS V14.01,2013-06-24 05:25:00,
2013-06-23 22:31:00,58.1,23.4,29.64,SW,234,0.0,0.0,26,0.00,,,0.00,VWS V14.01,2013-06-24 05:31:00,
2013-06-23 22:37:00,57.9,23.3,29.64,SW,234,0.0,0.0,26,0.00,,,0.00,VWS V14.01,2013-06-24 05:37:00,
2013-06-23 22:42:00,57.9,23.3,29.64,SW,234,0.0,0.0,26,0.00,,,0.00,VWS V14.01,2013-06-24 05:42:00,
2013-06-23 22:47:00,57.9,23.3,29.64,SW,234,0.0,0.0,26,0.00,,,0.00,VWS V14.01,2013-06-24 05:47:00,
2013-06-23 22:52:00,57.7,23.1,29.64,SW,234,0.0,0.0,26,0.00,,,0.00,VWS V14.01,2013-06-24 05:52:00,
2013-06-23 22:58:00,57.7,23.1,29.64,SW,234,0.0,0.0,26,0.00,,,0.00,VWS V14.01,2013-06-24 05:58:00,
2013-06-23 23:03:00,57.7,23.1,29.64,SW,234,0.0,0.0,26,0.00,,,0.00,VWS V14.01,2013-06-24 06:03:00,
2013-06-23 23:08:00,57.7,23.1,29.64,SW,234,0.0,0.0,26,0.00,,,0.00,VWS V14.01,2013-06-24 06:08:00,
2013-06-23 23:13:00,57.6,23.0,29.64,SW,234,0.0,0.0,26,0.00,,,0.00,VWS V14.01,2013-06-24 06:13:00,
2013-06-23 23:19:00,57.7,23.1,29.64,SW,234,0.0,0.0,26,0.00,,,0.00,VWS V14.01,2013-06-24 06:19:00,
2013-06-23 23:25:00,57.6,23.0,29.64,SW,234,0.0,0.0,26,0.00,,,0.00,VWS V14.01,2013-06-24 06:25:00,
2013-06-23 23:30:00,57.6,23.0,29.64,SW,234,0.0,0.0,26,0.00,,,0.00,VWS V14.01,2013-06-24 06:30:00,
2013-06-23 23:35:00,57.6,23.0,29.64,SW,234,0.0,0.0,26,0.00,,,0.00,VWS V14.01,2013-06-24 06:35:00,
2013-06-23 23:40:00,57.6,23.0,29.64,SW,234,0.0,0.0,26,0.00,,,0.00,VWS V14.01,2013-06-24 06:40:00,
2013-06-23 23:45:00,57.6,23.0,29.64,SW,234,0.0,0.0,26,0.00,,,0.00,VWS V14.01,2013-06-24 06:45:00,
2013-06-23 23:50:00,57.6,23.0,29.64,SW,234,0.0,0.0,26,0.00,,,0.00,VWS V14.01,2013-06-24 06:50:00,
2013-06-23 23:55:00,57.6,23.0,29.64,SW,234,0.0,0.0,26,0.00,,,0.00,VWS V14.01,2013-06-24 06:55:00,